Regional Weather Roundup
Issued by NWS

Home | Current Version | Previous Version | Text Only | Print | Product List | Glossary On
Versions: 1 2 3 4 5 6 7 8 9 10 11 12 13 14 15 16 17 18 19 20 21 22 23 24 25 26 27 28 29 30 31 32 33 34 35 36 37 38 39 40 41 42 43 44 45 46 47 48 49 50
000
ASUS43 KLSX 251907
RWRMO

WEATHER SUMMARY FOR MISSOURI
NATIONAL WEATHER SERVICE SPRINGFIELD MO
200 PM CDT FRI JUL 25 2014

NOTE: "FAIR" INDICATES FEW OR NO CLOUDS BELOW 12,000 FEET WITH NO
       SIGNIFICANT WEATHER AND/OR OBSTRUCTIONS TO VISIBILITY.
       CURRENT SKY AND/OR WEATHER CONDITIONS ARE NOT AVAILABLE FOR
       CHILLICOTHE AND FARMINGTON.

MOZ001>031-035>038-043-044-053-054-252000-
...NORTHERN AND WESTERN MISSOURI...

CITY           SKY/WX    TMP DP  RH WIND       PRES   REMARKS
KANSAS CTY INT MOSUNNY   93  74  53 S13       29.83F HX 103
KANSAS C DTWN  SUNNY     95  71  45 S14G22    29.82F HX 102
LEE`S SUMMIT   SUNNY     91  72  53 SW15G22   29.86S HX  98
ST JOSEPH      SUNNY     92  75  57 S16G22    29.79F HX 103
CHILLICOTHE      N/A     81  70  69 SE13      29.86F
KIRKSVILLE     PTSUNNY   72  65  78 SE21G30   29.91F

$$
MOZ066>068-077>081-088>096-101>105-252000-
...SOUTHWEST MISSOURI...

CITY           SKY/WX    TMP DP  RH WIND       PRES   REMARKS
SPRINGFIELD    MOSUNNY   88  69  53 S13       29.97F HX  92
JOPLIN         SUNNY     91  69  48 S17G24    29.94F HX  96

$$
MOZ032>034-039>042-045>050-055>058-069>072-252000-
...CENTRAL MISSOURI...

CITY           SKY/WX    TMP DP  RH WIND       PRES   REMARKS
COLUMBIA       PTSUNNY   83  68  60 SE13      29.95F
JEFFERSON CITY PTSUNNY   85  67  54 SE10G16   29.93F
ROLLA          PTSUNNY   86  65  49 S13       29.96F
SEDALIA        MOSUNNY   90  72  55 S12       29.91F HX  97
WHITEMAN AFB   MOSUNNY   90  62  38 SW15      29.88F HX  90
OSAGE BEACH    PTSUNNY   91  70  49 S12G20    29.93F HX  97

$$
MOZ051-052-059>065-252000-
...EAST CENTRAL MISSOURI...

CITY           SKY/WX    TMP DP  RH WIND       PRES   REMARKS
ST LOUIS INTL  CLOUDY    72  61  68 N9        30.09R THUNDER
SPIRIT OF STL  CLOUDY    73  62  68 E6        30.03R
ST CHARLES     CLOUDY    67  63  87 N14       30.09R

$$
MOZ072>076-082>087-097>100-106>115-252000-
...SOUTH CENTRAL AND SOUTHEAST MISSOURI...

CITY           SKY/WX    TMP DP  RH WIND       PRES   REMARKS
CAPE GIRARDEAU PTSUNNY   79  62  56 W3        30.04F
FARMINGTON     CLOUDY    77  61  57 S9        30.06F
POPLAR BLUFF   MOSUNNY   81  59  47 VRB6      30.02F
WEST PLAINS    SUNNY     81  65  58 S9        30.04F

$$



USA.gov is the U.S. government's official web portal to all federal, state and local government web resources and services.